Flag for China Weather past 2 weeks in Langfang, China

Now
57 °F

Light rain. Clear.


Feels Like: 57 °F
Forecast: 46 / 75 °F
Wind: 3 mph from Southeast

Location: Beijing Airport


UV Index: 5 (Moderate)

Visibility: N/A


Pressure: 30.18 "Hg

Humidity: 51%

Dew point: 39 °F

Location of LangfangLocation

Historic Weather in Langfang

°F

Langfang temperature yesterday

Maximum temperature yesterday: 68 °F (at 11:00 AM)
Minimum temperature yesterday: 54 °F (at 5:30 AM)
Average temperature yesterday: 61 °F

Past Weeks' High & Low Weather Summary

 TemperatureHumidityPressure
High90 °F (Apr 9, 1:30 PM)94% (Apr 18, 5:30 AM)30.27 "Hg (Apr 18, 5:30 AM)
Low37 °F (Apr 6, 4:00 AM)5% (Apr 4, 4:00 PM)29.77 "Hg (Apr 4, 3:00 PM)
Average61 °F38%30.02 "Hg
* Reported Apr 4 9:00 AM — Apr 19 9:30 AM, Langfang, Weather by CustomWeather, © 2014

Note: Actual official high and low records may vary slightly from our data, if they occured in-between our weather recording intervals... More about our weather records

Advertising

Historic Weather Conditions — Data for Previous 24 hours

 ConditionsComfort  
Time TempWeatherWind HumidityBarometerVisibility
9:30 AM
Apr 19
57 °FPassing clouds.3 mph51%30.18 "HgN/A
9:00 AM57 °FPassing clouds.3 mph51%30.18 "HgN/A
8:30 AM57 °FSunny.3 mph51%30.18 "Hg10 mi
8:00 AM55 °FSunny.3 mph55%30.18 "Hg10 mi
7:30 AM55 °FPassing clouds.3 mph59%30.18 "HgN/A
7:00 AM55 °FPassing clouds.3 mph55%30.18 "HgN/A
6:30 AM55 °FSunny.3 mph59%30.18 "Hg10 mi
6:00 AM54 °FSunny.1 mph63%30.18 "Hg10 mi
5:30 AM54 °FClear.No wind58%30.18 "Hg10 mi
5:00 AM54 °FClear.1 mph67%30.15 "Hg10 mi
4:30 AM54 °FClear.No wind58%30.18 "Hg10 mi
4:00 AM54 °FClear.1 mph58%30.15 "Hg10 mi
3:30 AM54 °FClear.1 mph63%30.18 "Hg10 mi
3:00 AM54 °FClear.1 mph58%30.18 "Hg10 mi
2:30 AM55 °FClear.1 mph51%30.18 "Hg10 mi
2:00 AM54 °FClear.1 mph54%30.18 "Hg10 mi
1:30 AM54 °FClear.3 mph54%30.21 "Hg10 mi
1:00 AM54 °FClear.1 mph63%30.21 "Hg10 mi
12:30 AM55 °FClear.1 mph51%30.21 "Hg10 mi
12:00 AM55 °FClear.3 mph51%30.21 "Hg10 mi
11:30 PM
Apr 18
55 °FClear.3 mph51%30.21 "Hg10 mi
11:00 PM57 °FPassing clouds.6 mph44%30.21 "HgN/A
10:30 PM57 °FPassing clouds.6 mph48%30.18 "HgN/A
10:00 PM57 °FClear.8 mph48%30.18 "Hg10 mi
9:30 PM57 °FClear.6 mph48%30.18 "Hg10 mi
9:00 PM57 °FClear.6 mph51%30.18 "Hg10 mi
8:30 PM57 °FClear.8 mph51%30.15 "Hg10 mi
8:00 PM59 °FClear.6 mph51%30.15 "Hg10 mi
7:30 PM59 °FClear.6 mph51%30.12 "Hg10 mi
7:00 PM61 °FClear.13 mph48%30.09 "Hg4 mi
6:30 PM63 °FHaze.10 mph56%30.09 "Hg2 mi
6:00 PM64 °FHaze.10 mph64%30.07 "Hg2 mi
5:30 PM66 °FHaze.8 mph60%30.07 "Hg2 mi
5:00 PM66 °FHaze.8 mph60%30.07 "Hg2 mi
4:30 PM68 °FHaze.8 mph56%30.07 "Hg2 mi
4:00 PM68 °FHaze.8 mph56%30.07 "Hg2 mi
3:30 PM68 °FHaze.6 mph56%30.07 "Hg2 mi
3:00 PM68 °FHaze.6 mph56%30.07 "Hg2 mi
2:30 PM68 °FHaze.8 mph53%30.07 "Hg2 mi
2:00 PM68 °FHaze.6 mph56%30.09 "Hg2 mi
1:30 PM68 °FHaze.6 mph56%30.09 "Hg2 mi
1:00 PM68 °FHaze.6 mph56%30.09 "Hg2 mi
12:30 PM68 °FHaze.6 mph60%30.12 "Hg2 mi
12:00 PM68 °FHaze.6 mph60%30.12 "Hg2 mi
11:30 AM68 °FHaze.3 mph56%30.12 "Hg2 mi
11:00 AM68 °FHaze.3 mph56%30.15 "Hg2 mi
10:30 AM66 °FHaze.1 mph60%30.12 "Hg2 mi
10:00 AM64 °FHaze.1 mph64%30.12 "Hg2 mi
Weather by CustomWeather, © 2014

See weather overview